STARLINK-4649 (53831 NORAD) Tracking and Keplerian Element Data

This shows tracking and keplerian element data for the satellite.

Feedback or suggestion? Click here.




ElementValue
Catalog53831
NameSTARLINK-4649
Epoch Orbit1047
Epoch Day325.33334491
Epoch Year2022
RAAN310.7215
Inclination53.2171
Eccentricity0.0001446
Argument of Perigee50.9047
Mean Anonmoly318.7006
Mean Motion15.15147489
Decay Rate-0.01154043
L11 53831U 22114P 22325.33334491 -.01154043 00000+0 -66051-1 0 9992
L22 53831 53.2171 310.7215 0001446 50.9047 318.7006 15.15147489 10472



Live tracking and technical data element details for STARLINK-4649 (NORAD 53831). STARLINK-4649 can be tracked NOW for your location showing map with azimuth and elevation plus other details from your city location.







IsCatalogInMostPopularTable: catalog: 53831, numindb: -1

Insert: records affected: 1


GetName: 53831 STARLINK-4649

Hit Count: inserted at: Mon, 28 Nov 2022 05:56:11 GMT